| time (UTC) | temp F | wind direction | speed MPH | gust MPH | rain 1hr in | rain 24hr in | rain mn in | humidity % | barometer mb |
| 20260902131554 | 62 | 167 | 0.0 | 7.0 | 0.00 | 0.00 | 0.00 | 100 | 1020.6 |
| 20260902130048 | 62 | 195 | 0.0 | 7.0 | 0.00 | 0.00 | 0.00 | 100 | 1020.6 |
| 20260902124544 | 0 | 0.0 | 0.0 | 0.00 | 0.00 | 0.00 | 1020.2 | ||
| 20260902123047 | 0 | 0.0 | 0.0 | 0.00 | 0.00 | 0.00 | 1020.0 | ||
| 20260902121535 | 0 | 0.0 | 0.0 | 0.00 | 0.00 | 0.00 | 1020.1 | ||
| 20260902120041 | 0 | 0.0 | 0.0 | 0.00 | 0.00 | 0.00 | 1020.0 | ||
| 20260902114526 | 0 | 0.0 | 0.0 | 0.00 | 0.00 | 0.00 | 1019.9 | ||
| 20260902113023 | 0 | 0.0 | 0.0 | 0.00 | 0.00 | 0.00 | 1020.0 | ||
| 20260902111535 | 0 | 0.0 | 0.0 | 0.00 | 0.00 | 0.00 | 1020.1 | ||
| 20260902110034 | 0 | 0.0 | 0.0 | 0.00 | 0.00 | 0.00 | 1020.3 | ||
| 20260902104509 | 0 | 0.0 | 0.0 | 0.00 | 0.00 | 0.00 | 1020.3 | ||
| 20260902103004 | 0 | 0.0 | 0.0 | 0.00 | 0.00 | 0.00 | 1020.1 | ||
| 20260902101600 | 0 | 0.0 | 0.0 | 0.00 | 0.00 | 0.00 | 1019.9 | ||
| 20260902100056 | 0 | 0.0 | 0.0 | 0.00 | 0.00 | 0.00 | 1019.8 | ||
| 20260902094553 | 63 | 157 | 0.0 | 0.0 | 0.00 | 0.00 | 0.00 | 100 | 1019.7 |
| 20260902093045 | 63 | 154 | 0.0 | 0.0 | 0.00 | 0.00 | 0.00 | 100 | 1019.7 |
| 20260902091539 | 63 | 154 | 0.0 | 2.0 | 0.00 | 0.00 | 0.00 | 100 | 1019.7 |
| 20260902090035 | 63 | 155 | 0.0 | 1.0 | 0.00 | 0.00 | 0.00 | 100 | 1019.4 |
| 20260902084538 | 63 | 214 | 0.0 | 1.0 | 0.00 | 0.00 | 0.00 | 100 | 1019.4 |
| 20260902083026 | 63 | 261 | 0.0 | 0.0 | 0.00 | 0.00 | 0.00 | 100 | 1019.2 |
| 20260902081522 | 63 | 151 | 0.0 | 0.0 | 0.00 | 0.00 | 0.00 | 100 | 1019.1 |
| 20260902080018 | 63 | 155 | 0.0 | 4.0 | 0.00 | 0.00 | 0.00 | 100 | 1019.2 |
| 20260902074514 | 63 | 69 | 0.0 | 2.0 | 0.00 | 0.00 | 0.00 | 100 | 1019.2 |
| 20260902073009 | 63 | 205 | 0.0 | 2.0 | 0.00 | 0.00 | 0.00 | 100 | 1019.3 |
| 20260902071505 | 63 | 142 | 0.0 | 3.0 | 0.00 | 0.00 | 0.00 | 100 | 1019.2 |
| 20260902070100 | 63 | 196 | 0.0 | 3.0 | 0.00 | 0.00 | 0.00 | 100 | 1019.3 |
| 20260902064556 | 63 | 181 | 0.0 | 2.0 | 0.00 | 0.00 | 0.00 | 100 | 1019.4 |
| 20260902063051 | 63 | 180 | 0.0 | 7.0 | 0.00 | 0.00 | 0.00 | 100 | 1019.3 |
| 20260902060048 | 64 | 178 | 0.0 | 4.0 | 0.00 | 0.00 | 0.00 | 100 | 1019.3 |
| 20260902054545 | 64 | 229 | 0.0 | 2.0 | 0.00 | 0.00 | 0.00 | 100 | 1019.2 |
| 20260902053034 | 64 | 11 | 0.0 | 1.0 | 0.00 | 0.00 | 0.00 | 100 | 1019.1 |
| 20260902051529 | 64 | 10 | 0.0 | 0.0 | 0.00 | 0.00 | 0.00 | 100 | 1018.8 |
| 20260902050026 | 64 | 10 | 0.0 | 0.0 | 0.00 | 0.00 | 0.00 | 100 | 1018.6 |
| 20260902044521 | 64 | 44 | 0.0 | 3.0 | 0.00 | 0.00 | 0.00 | 100 | 1018.5 |
| 20260902043018 | 64 | 253 | 0.0 | 0.0 | 0.00 | 0.00 | 0.00 | 100 | 1018.5 |
| 20260902041512 | 65 | 248 | 0.0 | 0.0 | 0.00 | 0.00 | 0.00 | 100 | 1018.4 |
| 20260902040008 | 65 | 248 | 0.0 | 0.0 | 0.00 | 0.00 | 0.00 | 100 | 1018.3 |
| 20260902034503 | 65 | 248 | 0.0 | 0.0 | 0.00 | 0.00 | 0.00 | 100 | 1018.1 |
| 20260902033108 | 65 | 248 | 0.0 | 0.0 | 0.00 | 0.00 | 0.00 | 100 | 1017.9 |
| 20260902031555 | 65 | 248 | 0.0 | 0.0 | 0.00 | 0.00 | 0.00 | 100 | 1018.0 |
| 20260902030051 | 66 | 248 | 0.0 | 0.0 | 0.00 | 0.00 | 0.00 | 100 | 1017.8 |
| 20260902024546 | 66 | 252 | 0.0 | 0.0 | 0.00 | 0.00 | 0.00 | 100 | 1017.9 |
| 20260902023043 | 66 | 252 | 0.0 | 0.0 | 0.00 | 0.00 | 0.00 | 100 | 1017.8 |
| 20260902021537 | 67 | 252 | 0.0 | 0.0 | 0.00 | 0.00 | 0.00 | 100 | 1017.9 |
| 20260902020033 | 67 | 252 | 0.0 | 0.0 | 0.00 | 0.00 | 0.00 | 100 | 1018.0 |
| 20260902014534 | 67 | 252 | 0.0 | 0.0 | 0.00 | 0.00 | 0.00 | 100 | 1017.7 |
| 20260902013024 | 67 | 252 | 0.0 | 0.0 | 0.00 | 0.00 | 0.00 | 100 | 1017.6 |
| 20260902011520 | 68 | 252 | 0.0 | 0.0 | 0.00 | 0.00 | 0.00 | 100 | 1017.5 |
| 20260902010018 | 68 | 346 | 0.0 | 0.0 | 0.00 | 0.00 | 0.00 | 100 | 1017.2 |
| 20260902004511 | 68 | 346 | 0.0 | 0.0 | 0.00 | 0.00 | 0.00 | 100 | 1016.8 |
| 20260902003009 | 69 | 349 | 0.0 | 0.0 | 0.00 | 0.00 | 0.00 | 100 | 1016.6 |
| 20260902001502 | 69 | 349 | 0.0 | 0.0 | 0.00 | 0.00 | 0.00 | 100 | 1016.3 |
| 20260902000059 | 69 | 349 | 0.0 | 0.0 | 0.00 | 0.00 | 0.00 | 100 | 1016.3 |
| 20260901234605 | 69 | 349 | 0.0 | 0.0 | 0.00 | 0.00 | 0.00 | 100 | 1016.3 |
| 20260901233050 | 69 | 349 | 0.0 | 0.0 | 0.00 | 0.00 | 0.00 | 100 | 1016.4 |
| 20260901231545 | 69 | 349 | 0.0 | 0.0 | 0.00 | 0.00 | 0.00 | 100 | 1016.3 |
| 20260901230046 | 70 | 349 | 0.0 | 0.0 | 0.00 | 0.00 | 0.00 | 100 | 1016.3 |
| 20260901224536 | 70 | 349 | 0.0 | 0.0 | 0.00 | 0.00 | 0.00 | 100 | 1016.3 |
| 20260901223032 | 70 | 349 | 0.0 | 0.0 | 0.00 | 0.00 | 0.00 | 100 | 1016.4 |
| 20260901221528 | 70 | 349 | 0.0 | 0.0 | 0.00 | 0.00 | 0.00 | 100 | 1016.4 |
| 20260901220023 | 70 | 349 | 0.0 | 0.0 | 0.00 | 0.00 | 0.00 | 100 | 1016.0 |
| 20260901214518 | 70 | 349 | 0.0 | 0.0 | 0.00 | 0.00 | 0.00 | 100 | 1016.0 |
| 20260901213043 | 70 | 349 | 0.0 | 0.0 | 0.00 | 0.00 | 0.00 | 100 | 1015.9 |
| 20260901211514 | 70 | 349 | 0.0 | 0.0 | 0.00 | 0.00 | 0.00 | 100 | 1016.0 |
| 20260901210016 | 70 | 349 | 0.0 | 0.0 | 0.00 | 0.00 | 0.00 | 100 | 1015.8 |
| 20260901204502 | 70 | 349 | 0.0 | 0.0 | 0.00 | 0.00 | 0.00 | 100 | 1015.8 |
| 20260901203102 | 70 | 349 | 0.0 | 0.0 | 0.00 | 0.00 | 0.00 | 100 | 1015.7 |
| 20260901201552 | 70 | 349 | 0.0 | 0.0 | 0.00 | 0.00 | 0.00 | 100 | 1015.6 |
| 20260901200054 | 70 | 349 | 0.0 | 0.0 | 0.00 | 0.00 | 0.00 | 100 | 1015.6 |
| 20260901194543 | 70 | 349 | 0.0 | 0.0 | 0.00 | 0.00 | 0.00 | 100 | 1015.5 |
| 20260901193055 | 70 | 349 | 0.0 | 0.0 | 0.00 | 0.00 | 0.00 | 100 | 1015.4 |
| 20260901191537 | 70 | 349 | 0.0 | 0.0 | 0.00 | 0.00 | 0.00 | 100 | 1015.4 |
| 20260901190031 | 70 | 348 | 0.0 | 0.0 | 0.00 | 0.00 | 0.00 | 100 | 1015.3 |
| 20260901184532 | 70 | 348 | 0.0 | 2.0 | 0.00 | 0.00 | 0.00 | 100 | 1015.2 |
| 20260901183021 | 71 | 348 | 0.0 | 0.0 | 0.00 | 0.00 | 0.00 | 100 | 1015.2 |
| 20260901181518 | 71 | 348 | 0.0 | 1.0 | 0.00 | 0.00 | 0.00 | 100 | 1015.2 |
| 20260901180012 | 71 | 348 | 0.0 | 1.0 | 0.00 | 0.00 | 0.00 | 100 | 1015.1 |
| 20260901174508 | 71 | 105 | 0.0 | 0.0 | 0.00 | 0.00 | 0.00 | 100 | 1014.9 |
| 20260901173003 | 71 | 105 | 0.0 | 0.0 | 0.00 | 0.00 | 0.00 | 100 | 1014.9 |
| 20260901171608 | 71 | 105 | 0.0 | 1.0 | 0.00 | 0.00 | 0.00 | 100 | 1014.8 |
| 20260901170055 | 71 | 146 | 0.0 | 1.0 | 0.00 | 0.00 | 0.00 | 100 | 1014.7 |
| 20260901164551 | 71 | 146 | 0.0 | 1.0 | 0.00 | 0.00 | 0.00 | 100 | 1014.8 |
| 20260901163046 | 70 | 149 | 0.0 | 0.0 | 0.00 | 0.00 | 0.00 | 100 | 1014.7 |
| 20260901161542 | 70 | 149 | 0.0 | 0.0 | 0.00 | 0.00 | 0.00 | 100 | 1015.1 |
| 20260901160038 | 70 | 149 | 0.0 | 0.0 | 0.00 | 0.00 | 0.00 | 100 | 1015.2 |
| 20260901154533 | 70 | 149 | 0.0 | 0.0 | 0.00 | 0.00 | 0.00 | 100 | 1015.3 |
| 20260901153029 | 70 | 149 | 0.0 | 0.0 | 0.00 | 0.00 | 0.00 | 100 | 1015.3 |
| 20260901151524 | 69 | 149 | 0.0 | 0.0 | 0.00 | 0.00 | 0.00 | 100 | 1015.4 |
| 20260901150020 | 69 | 149 | 0.0 | 0.0 | 0.00 | 0.00 | 0.00 | 100 | 1015.3 |
| 20260901144517 | 69 | 149 | 0.0 | 0.0 | 0.00 | 0.00 | 0.00 | 100 | 1015.4 |
| 20260901143011 | 69 | 149 | 0.0 | 0.0 | 0.00 | 0.00 | 0.00 | 100 | 1015.5 |
| 20260901141507 | 69 | 149 | 0.0 | 0.0 | 0.00 | 0.00 | 0.00 | 100 | 1015.4 |
| 20260901140003 | 69 | 149 | 0.0 | 0.0 | 0.00 | 0.00 | 0.00 | 100 | 1015.4 |
| 20260901134611 | 69 | 149 | 0.0 | 0.0 | 0.00 | 0.00 | 0.00 | 100 | 1015.7 |
| 20260901133054 | 69 | 149 | 0.0 | 0.0 | 0.00 | 0.00 | 0.00 | 100 | 1015.7 |